Location: Cahas Mountain Overlook
(37.0833°N, 80.1000°W)
Time: 10:45:17
(UTC-04:00)

A-11 Canister half - Pass Details

Date: 09 February 2026
Orbit: 1524 x 1683 km, 47.3° (Epoch: 16 March)

Event Time Altitude Azimuth Distance (km) Brightness Sun altitude
Rises 21:14:35 0° 276° (W) 4,673 12.4 -40.3°
Reaches altitude 10° 21:17:50 10° 282° (WNW) 3,688 11.7 -40.9°
Enters shadow 21:25:52 45° 341° (NNW) 1,991 9.6 -42.4°
